軌道要素
Epoch 2008 May 14.0 TT = JDT 2454600.5
T 2008 May 19.01808 TT Kobayashi
q 1.0604282 (2000.0) P Q
n 0.20311846 Peri. 188.79441 -0.26942972 +0.87816552
a 2.8661777 Node 66.38904 -0.85524467 -0.02952289
e 0.6300201 Incl. 25.55487 -0.44267841 -0.47744499
P 4.85
From 304 observations 2003 May 23-2013 Sept. 25, mean residual 0".7.
Nongravitational parameters A1 = +0.00, A2 = +0.0018.
|